otsikko

Currahee


- Nimi: Currahee
- Rotu: trakehner
- Sukupuoli: ori
- Säkäkorkeus: 171cm
- Syntynyt: 06.06.2012

Täytti 06.09.2012 3 vuotta, 06.12.2012 6 vuotta (oma ikääntyminen)
- Painotus: esteet
- Koulutus: re: 160cm, ko: He A

- VH-tunnus:

- Omistaja: Dark Side Trakehners (bill, VRL-02198)
- Kasvattaja:


Luonnekuvaus



Sukutaulu

i Cold Corps ii Masquerade Corps iii Totengräber
iie Masquerade Valley
ie Corumia iei Steel Riddle
iee Cantaloupe
e Calliandra ei Ring Lord eii Mastermorphosis
eie Rosella
ee Casaba eei Radhauer
eee Caesalpinia

Sukuselvitys tähän

Jälkeläiset

Currahee ei ole käytössä jalostukseen

00.00.0000 o/t. Varsan nimi tähän e./i. Sen toisen nimi om. Omistaja

Kilpailut

Kalenteriin merkitään vain sijoitukset ERJ:n alaisista estekilpailuista (108kpl).

28.01.2013 kutsu 160cm 5/40
30.01.2013 kutsu 160cm 2/40
30.01.2013 kutsu 160cm 3/30
31.01.2013 kutsu 160cm 2/37
01.02.2013 kutsu 160cm 5/30
02.02.2013 kutsu 160cm 4/30
02.02.2013 kutsu 160cm 3/30
02.02.2013 kutsu 160cm 3/30
04.02.2013 kutsu 160cm 2/22
04.02.2013 kutsu 160cm 4/30
04.02.2013 kutsu 160cm 4/30
04.02.2013 kutsu 160cm 3/30
05.02.2013 kutsu 160cm 4/30
05.02.2013 kutsu 160cm 3/30
05.02.2013 kutsu 160cm 5/30
05.02.2013 kutsu 160cm 2/30
05.02.2013 kutsu 160cm 3/22
06.02.2013 kutsu 160cm 1/22
06.02.2013 kutsu 160cm 4/30
06.02.2013 kutsu 160cm 1/30
06.02.2013 kutsu 160cm 4/30
07.02.2013 kutsu 160cm 2/30
07.02.2013 kutsu 160cm 3/40
08.02.2013 kutsu 160cm 5/30
08.02.2013 kutsu 160cm 3/30
09.02.2013 kutsu 160cm 1/30
09.02.2013 kutsu 160cm 1/30
10.02.2013 kutsu 160cm 5/30
10.02.2013 kutsu 160cm 1/30
10.02.2013 kutsu 160cm 5/40
10.02.2013 kutsu 160cm 3/30
11.02.2013 kutsu 160cm 3/30
11.02.2013 kutsu 160cm 1/30
11.02.2013 kutsu 160cm 3/30
11.02.2013 kutsu 160cm 5/40
12.02.2013 kutsu 160cm 2/40
12.02.2013 kutsu 160cm 2/40
12.02.2013 kutsu 160cm 2/30
12.02.2013 kutsu 160cm 4/40
13.02.2013 kutsu 160cm 2/30
13.02.2013 kutsu 160cm 5/40
14.02.2013 kutsu 160cm 4/40
15.02.2013 kutsu 160cm 3/40
15.02.2013 kutsu 160cm 5/30
15.02.2013 kutsu 160cm 5/30
15.02.2013 kutsu 160cm 4/46
15.02.2013 kutsu 160cm 2/41
16.02.2013 kutsu 160cm 3/40
16.02.2013 kutsu 160cm 5/41
16.02.2013 kutsu 160cm 4/30
16.02.2013 kutsu 160cm 1/30
16.02.2013 kutsu 160cm 1/30
16.02.2013 kutsu 160cm 4/40
16.02.2013 kutsu 160cm 6/60
17.02.2013 kutsu 160cm 3/30
17.02.2013 kutsu 160cm 5/30
17.02.2013 kutsu 160cm 2/30
17.02.2013 kutsu 160cm 4/30
18.02.2013 kutsu 160cm 3/30
18.02.2013 kutsu 160cm 2/30
18.02.2013 kutsu 160cm 2/30
18.02.2013 kutsu 160cm 5/30
18.02.2013 kutsu 160cm 2/30
18.02.2013 kutsu 160cm 6/60
19.02.2013 kutsu 160cm 5/30
19.02.2013 kutsu 160cm 3/30
19.02.2013 kutsu 160cm 1/30
20.02.2013 kutsu 160cm 2/30
20.02.2013 kutsu 160cm 3/30
20.02.2013 kutsu 160cm 1/30
21.02.2013 kutsu 160cm 2/30
21.02.2013 kutsu 160cm 2/30
21.02.2013 kutsu 160cm 2/30
22.02.2013 kutsu 160cm 5/30
23.02.2013 kutsu 160cm 1/30
23.02.2013 kutsu 160cm 2/30
23.02.2013 kutsu 160cm 7/50
24.02.2013 kutsu 160cm 1/30
24.02.2013 kutsu 160cm 1/30
24.02.2013 kutsu 160cm 3/30
25.02.2013 kutsu 160cm 2/30
25.02.2013 kutsu 160cm 4/30
25.02.2013 kutsu 160cm 4/30
26.02.2013 kutsu 160cm 1/30
26.02.2013 kutsu 160cm 1/50
27.02.2013 kutsu 160cm 4/30
27.02.2013 kutsu 160cm 5/30
27.02.2013 kutsu 160cm 4/30
28.02.2013 kutsu 160cm 6/50
28.02.2013 kutsu 160cm 1/30
28.02.2013 kutsu 160cm 4/30
02.03.2013 kutsu 160cm 1/30
02.03.2013 kutsu 160cm 4/50
03.03.2013 kutsu 160cm 4/30
05.03.2013 kutsu 160cm 3/50
05.03.2013 kutsu 160cm 3/30
08.03.2013 kutsu 160cm 6/50
09.03.2013 kutsu 160cm 5/30
11.03.2013 kutsu 160cm 3/30
11.03.2013 kutsu 160cm 2/30
12.03.2013 kutsu 160cm 1/50
13.03.2013 kutsu 160cm 1/30
13.03.2013 kutsu 160cm 2/30
14.03.2013 kutsu 160cm 1/30
14.03.2013 kutsu 160cm 4/30
14.03.2013 kutsu 160cm 1/50
22.03.2013 kutsu 160cm 3/30
24.03.2013 kutsu 160cm 1/30


Päiväkirja



Tekstit © bill, kuvat © Benny de Ruiter Stables (Luvalla, kiitos! With permission, thank you! Vielen Dank!)
Currahee on virtuaalihevonen! Currahee is a SIM-game horse!


© Päivie & billeriina 2010, Lue lisää! // Takaisin etusivulle
Dark Side Trakehners on virtuaalitalli! Dark Side Trakehners is a SIM-game stable!